• In Portugal
  • List of Countries
  • For 7 days
  • Water Temperature
  • Satellite Maps
  • Weather Map
  • Weather Widgets
  • user-avatar
    Login

    Hourly Weather Pokhara

    Today, 25 September, Tuesday

    Time Temperature Precipitation Wind Pressure Humidity
    00:00 +24°C° 0 mm 1 mps 683 mmHg 88%
    01:00 +24°C° 0 mm 1 mps 683 mmHg 87%
    02:00 +24°C° 0 mm 1 mps 683 mmHg 86%
    03:00 +24°C° 0 mm 1 mps 682 mmHg 85%
    04:00 +24°C° 0 mm 1 mps 682 mmHg 85%
    05:00 +23°C° 0 mm 1 mps 682 mmHg 84%
    06:00 +23°C° 0 mm 1 mps 682 mmHg 81%
    07:00 +25°C° 0 mm 1 mps 682 mmHg 77%
    08:00 +27°C° 0 mm 1 mps 683 mmHg 74%
    09:00 +29°C° 0 mm 1 mps 683 mmHg 70%
    10:00 +30°C° 0 mm 1 mps 683 mmHg 68%
    11:00 +31°C° 0 mm 2 mps 683 mmHg 65%
    12:00 +31°C° 0 mm 2 mps 683 mmHg 63%
    13:00 +31°C° 0.3 mm 2 mps 682 mmHg 66%
    14:00 +31°C° 0.3 mm 2 mps 682 mmHg 68%
    15:00 +30°C° 0.3 mm 2 mps 681 mmHg 71%
    16:00 +29°C° 0.7 mm 2 mps 681 mmHg 77%
    17:00 +28°C° 0.7 mm 1 mps 681 mmHg 83%
    18:00 +27°C° 0.7 mm 1 mps 681 mmHg 89%
    19:00 +26°C° 0.8 mm 1 mps 681 mmHg 90%
    20:00 +26°C° 0.8 mm 1 mps 681 mmHg 92%
    21:00 +23°C° 0.8 mm 0 mps 681 mmHg 93%
    22:00 +25°C° 0.1 mm 1 mps 681 mmHg 92%
    23:00 +25°C° 0.1 mm 1 mps 681 mmHg 91%

    Tomorrow, 26 September, Wednesday

    Time Temperature Precipitation Wind Pressure Humidity
    00:00 +24°C° 0.1 mm 1 mps 681 mmHg 90%
    01:00 +24°C° 0 mm 1 mps 681 mmHg 89%
    02:00 +24°C° 0 mm 1 mps 681 mmHg 88%
    03:00 +24°C° 0 mm 1 mps 681 mmHg 87%
    04:00 +24°C° 0 mm 1 mps 681 mmHg 86%
    05:00 +23°C° 0 mm 1 mps 681 mmHg 86%
    06:00 +23°C° 0 mm 1 mps 681 mmHg 85%
    07:00 +25°C° 0 mm 1 mps 681 mmHg 80%
    08:00 +27°C° 0 mm 1 mps 682 mmHg 76%
    09:00 +28°C° 0 mm 1 mps 683 mmHg 72%
    10:00 +29°C° 0.1 mm 2 mps 683 mmHg 69%
    11:00 +30°C° 0.1 mm 2 mps 683 mmHg 66%
    12:00 +31°C° 0.1 mm 2 mps 682 mmHg 63%
    13:00 +31°C° 0.3 mm 2 mps 682 mmHg 64%
    14:00 +31°C° 0.3 mm 2 mps 681 mmHg 65%
    15:00 +30°C° 0.3 mm 2 mps 681 mmHg 66%
    16:00 +29°C° 0.9 mm 2 mps 681 mmHg 73%
    17:00 +28°C° 0.9 mm 1 mps 681 mmHg 80%
    18:00 +27°C° 0.9 mm 1 mps 681 mmHg 87%
    19:00 +26°C° 0.3 mm 1 mps 681 mmHg 89%
    20:00 +26°C° 0.3 mm 1 mps 682 mmHg 90%
    21:00 +25°C° 0.3 mm 1 mps 682 mmHg 92%
    22:00 +25°C° 0 mm 1 mps 682 mmHg 91%
    23:00 +24°C° 0 mm 1 mps 682 mmHg 91%

    Day after tomorrow, 27 September, Thursday

    Time Temperature Precipitation Wind Pressure Humidity
    00:00 +24°C° 0 mm 1 mps 682 mmHg 90%
    01:00 +24°C° 0 mm 1 mps 682 mmHg 89%
    02:00 +24°C° 0 mm 1 mps 682 mmHg 88%
    03:00 +23°C° 0 mm 1 mps 681 mmHg 87%
    04:00 +23°C° 0 mm 1 mps 681 mmHg 85%
    05:00 +23°C° 0 mm 1 mps 681 mmHg 83%
    06:00 +23°C° 0 mm 1 mps 681 mmHg 82%
    07:00 +25°C° 0 mm 1 mps 682 mmHg 78%
    08:00 +27°C° 0 mm 1 mps 683 mmHg 74%
    09:00 +28°C° 0 mm 1 mps 684 mmHg 70%
    10:00 +29°C° 0 mm 2 mps 683 mmHg 66%
    11:00 +30°C° 0 mm 2 mps 683 mmHg 62%
    12:00 +31°C° 0 mm 2 mps 683 mmHg 59%
    13:00 +31°C° 0 mm 2 mps 683 mmHg 60%
    14:00 +31°C° 0 mm 2 mps 682 mmHg 61%
    15:00 +31°C° 0 mm 2 mps 682 mmHg 62%
    16:00 +29°C° 0.1 mm 2 mps 681 mmHg 70%
    17:00 +28°C° 0.1 mm 1 mps 681 mmHg 77%
    18:00 +27°C° 0.1 mm 1 mps 681 mmHg 84%
    19:00 +26°C° 0 mm 1 mps 682 mmHg 85%
    20:00 +25°C° 0 mm 1 mps 682 mmHg 87%
    21:00 +25°C° 0 mm 1 mps 683 mmHg 88%
    22:00 +24°C° 0 mm 1 mps 683 mmHg 86%
    23:00 +24°C° 0 mm 1 mps 683 mmHg 84%

    28 September, Friday

    Time Temperature Precipitation Wind Pressure Humidity
    00:00 +24°C° 0 mm 1 mps 683 mmHg 83%
    01:00 +23°C° 0 mm 1 mps 682 mmHg 81%
    02:00 +23°C° 0 mm 1 mps 682 mmHg 79%
    03:00 +23°C° 0 mm 1 mps 682 mmHg 77%
    04:00 +23°C° 0 mm 1 mps 682 mmHg 74%
    05:00 +23°C° 0 mm 1 mps 682 mmHg 72%
    06:00 +22°C° 0 mm 1 mps 682 mmHg 69%
    07:00 +25°C° 0 mm 1 mps 683 mmHg 65%
    08:00 +27°C° 0 mm 1 mps 684 mmHg 61%
    09:00 +29°C° 0 mm 1 mps 684 mmHg 58%
    10:00 +30°C° 0 mm 1 mps 684 mmHg 55%
    11:00 +31°C° 0 mm 2 mps 684 mmHg 51%
    12:00 +32°C° 0 mm 2 mps 684 mmHg 48%
    13:00 +32°C° 0 mm 2 mps 684 mmHg 51%
    14:00 +31°C° 0 mm 2 mps 683 mmHg 53%
    15:00 +31°C° 0 mm 3 mps 682 mmHg 55%
    16:00 +30°C° 0.1 mm 2 mps 682 mmHg 64%
    17:00 +28°C° 0.1 mm 1 mps 682 mmHg 72%
    18:00 +27°C° 0.1 mm 1 mps 682 mmHg 81%
    19:00 +26°C° 0 mm 1 mps 683 mmHg 82%
    20:00 +25°C° 0 mm 1 mps 683 mmHg 84%
    21:00 +24°C° 0 mm 1 mps 683 mmHg 86%
    22:00 +24°C° 0 mm 1 mps 683 mmHg 84%
    23:00 +24°C° 0 mm 1 mps 683 mmHg 82%

    29 September, Saturday

    Time Temperature Precipitation Wind Pressure Humidity
    00:00 +23°C° 0 mm 1 mps 683 mmHg 80%
    01:00 +23°C° 0 mm 1 mps 683 mmHg 78%
    02:00 +23°C° 0 mm 1 mps 682 mmHg 76%
    03:00 +23°C° 0 mm 1 mps 682 mmHg 74%
    04:00 +23°C° 0 mm 1 mps 682 mmHg 71%
    05:00 +23°C° 0 mm 2 mps 682 mmHg 69%
    06:00 +21°C° 0 mm 2 mps 682 mmHg 66%
    07:00 +25°C° 0 mm 1 mps 683 mmHg 62%
    08:00 +27°C° 0 mm 1 mps 684 mmHg 59%
    09:00 +29°C° 0 mm 1 mps 685 mmHg 55%
    10:00 +30°C° 0 mm 1 mps 684 mmHg 52%
    11:00 +31°C° 0 mm 2 mps 684 mmHg 49%
    12:00 +32°C° 0 mm 2 mps 684 mmHg 46%
    13:00 +32°C° 0 mm 2 mps 684 mmHg 48%
    14:00 +32°C° 0 mm 2 mps 683 mmHg 50%
    15:00 +32°C° 0 mm 2 mps 682 mmHg 52%
    16:00 +30°C° 0 mm 2 mps 682 mmHg 62%
    17:00 +28°C° 0 mm 1 mps 682 mmHg 71%
    18:00 +27°C° 0 mm 1 mps 682 mmHg 80%
    19:00 +26°C° 0 mm 1 mps 682 mmHg 81%
    20:00 +25°C° 0 mm 1 mps 682 mmHg 81%
    21:00 +24°C° 0 mm 1 mps 683 mmHg 82%
    22:00 +24°C° 0 mm 1 mps 683 mmHg 80%
    23:00 +24°C° 0 mm 1 mps 683 mmHg 78%

    30 September, Sunday

    Time Temperature Precipitation Wind Pressure Humidity
    00:00 +24°C° 0 mm 1 mps 682 mmHg 76%
    01:00 +24°C° 0 mm 1 mps 682 mmHg 74%
    02:00 +23°C° 0 mm 1 mps 682 mmHg 73%
    03:00 +23°C° 0 mm 1 mps 681 mmHg 71%
    04:00 +23°C° 0 mm 1 mps 682 mmHg 70%
    05:00 +23°C° 0 mm 1 mps 682 mmHg 69%
    06:00 +23°C° 0 mm 1 mps 682 mmHg 67%
    07:00 +25°C° 0 mm 1 mps 683 mmHg 65%
    08:00 +27°C° 0 mm 1 mps 683 mmHg 63%
    09:00 +29°C° 0 mm 1 mps 684 mmHg 61%
    10:00 +30°C° 0 mm 1 mps 684 mmHg 60%
    11:00 +31°C° 0 mm 2 mps 683 mmHg 58%
    12:00 +32°C° 0 mm 2 mps 683 mmHg 57%
    13:00 +31°C° 0.2 mm 2 mps 682 mmHg 59%
    14:00 +31°C° 0.2 mm 2 mps 682 mmHg 61%
    15:00 +31°C° 0.2 mm 2 mps 681 mmHg 64%
    16:00 +29°C° 0.3 mm 2 mps 681 mmHg 71%
    17:00 +28°C° 0.3 mm 2 mps 681 mmHg 78%
    18:00 +27°C° 0.3 mm 1 mps 681 mmHg 86%
    19:00 +26°C° 0.1 mm 1 mps 681 mmHg 87%
    20:00 +25°C° 0.1 mm 1 mps 682 mmHg 88%
    21:00 +25°C° 0.1 mm 1 mps 682 mmHg 89%
    22:00 +25°C° 0 mm 1 mps 682 mmHg 89%
    23:00 +24°C° 0 mm 1 mps 682 mmHg 89%
    Show more